Location: Newark
(50.0306°N, 2.3272°E)
Time: 00:16:21
(UTC+00:00)

Transit 2A Rocket - Pass Details

Date: 11 December 2019
Orbit: 593 x 910 km, 66.7° (Epoch: 27 January)

Event Time Altitude Azimuth Distance (km) Brightness Sun altitude
Rises 18:58:55 0° 283° (WNW) 2,867 9.1 -29.3°
Reaches altitude 10° 19:02:32 10° 314° (NW) 1,941 7.6 -29.9°
Enters shadow 19:04:09 12° 336° (NNW) 1,788 7.1 -30.2°
Maximum altitude 19:04:21 12° 339° (NNW) 1,786 - -30.2°
Drops below altitude 10° 19:06:11 10° 5° (N) 1,937 - -30.5°
Sets 19:09:47 0° 36° (NE) 2,857 - -31.1°
